This is the latest recevied weather packets stored in our database for station/object OE-11099. If no packets are shown the sender has not sent any weather packets the latest 10 day(s).
| Time | Temp. | Humidity | Pressure | Rain* | Wind** | Luminosity | Snow |
|---|---|---|---|---|---|---|---|
| 1787661679 | 20° C | 79% | 1013.2 hPa | 0 mm | - | 286 W/m² | - |
| 1787661306 | 19.44° C | 76% | 1013.2 hPa | 0 mm | - | 399 W/m² | - |
| 1787660706 | 20° C | 80% | 1013.1 hPa | 0 mm | - | 532 W/m² | - |
| 1787660118 | 19.44° C | 80% | 1013.2 hPa | 0 mm | - | 346 W/m² | - |
| 1787659506 | 18.89° C | 79% | 1013.5 hPa | 0 mm | - | 273 W/m² | - |
| 1787658906 | 18.89° C | 81% | 1013.5 hPa | 0 mm | - | 465 W/m² | - |
| 1787658079 | 18.33° C | 80% | 1013.6 hPa | 0 mm | - | 412 W/m² | - |
| 1787657705 | 18.33° C | 83% | 1013.7 hPa | 0 mm | - | 419 W/m² | - |
| 1787657105 | 18.33° C | 84% | 1013.8 hPa | 0 mm | - | 273 W/m² | - |
| 1787654479 | 17.78° C | 90% | 1013.8 hPa | 0 mm | - | 199 W/m² | - |
| 1787654105 | 17.78° C | 90% | 1013.8 hPa | 0 mm | - | 199 W/m² | - |
| 1787652306 | 17.78° C | 91% | 1013.8 hPa | 0.25 mm | - | 306 W/m² | - |
| 1787651705 | 17.78° C | 90% | 1013.6 hPa | 0.25 mm | - | 319 W/m² | - |
| 1787650879 | 17.22° C | 89% | 1013.7 hPa | 0.51 mm | - | 326 W/m² | - |
| 1787650506 | 17.22° C | 90% | 1013.8 hPa | 0.76 mm | - | 239 W/m² | - |
| 1787649906 | 16.67° C | 90% | 1013.8 hPa | 1.02 mm | - | 226 W/m² | - |
| 1787649078 | 16.67° C | 92% | 1013.7 hPa | 1.52 mm | - | 253 W/m² | - |
| 1787648706 | 16.67° C | 92% | 1013.8 hPa | 1.78 mm | - | 239 W/m² | - |
| 1787648106 | 16.11° C | 94% | 1013.7 hPa | 2.03 mm | - | 206 W/m² | - |
| 1787647278 | 16.11° C | 94% | 1013.7 hPa | 2.29 mm | - | 160 W/m² | - |
| 1787646906 | 16.11° C | 96% | 1013.6 hPa | 2.79 mm | - | 113 W/m² | - |
| 1787646306 | 16.11° C | 96% | 1013.6 hPa | 3.3 mm | - | 73 W/m² | - |
| 1787645478 | 16.11° C | 96% | 1013.5 hPa | 3.56 mm | - | 60 W/m² | - |
| 1787645106 | 16.11° C | 97% | 1013.4 hPa | 3.3 mm | - | 47 W/m² | - |
| 1787644506 | 15.56° C | 96% | 1013.4 hPa | 3.3 mm | - | 40 W/m² | - |
* Rain latest hour (hover to see other rain measurements)
** Current wind speed in m/s (hover to see current wind gust speed)